CHINASAT 2D

导读

CHINASAT 2D(中星2D)是中国于2019年1月10日在西昌卫星发射中心,由长征三号乙运载火箭成功发射的通信广播卫星。由中国航天科技集团五院研制,隶属于中国卫星通信集团。运行于地球同步轨道,可为广播电视机构、有线电视网提供广播电视及宽带多媒体传输服务,助力提升我国通信广播服务水平,开启当年中国宇航发射的开门红。

基本信息
目录编号:
43920
目录名称:
CHINASAT 2D
国际标识:
2019-001A
轨道中心:
EARTH
卫星名称:
CHINASAT 2D
卫星全名:
--
卫星状态:
在轨 (已飞行2719 天)
发射日期:
2019-01-10 UTC
国别 :
中国 (CN)
星等 :
--
轨道信息
数据来源 国际轨道数据 AOE轨道数据
星历时间 2026-06-21T06:00:08+0800
16小时前
查看轨道信息
2026-06-21T01:00:00+0800
21小时前
查看轨道信息
半长轴 42165.345km 42165.121km
偏心率 0.0001313 0.000119
轨道倾角 0.038° 0.034°
近地点辐角 138.583° 122.332°
升交点赤经 199.201° 217.666°
平近点角 31.372° 313.925°
近地点 35781.671km 35781.966km
远地点 35792.745km 35792.002km
周期 1436.128分钟 1436.117分钟
每日圈数 1.002696 1.002704
详细信息
使用方式:
暂无
2D轨道图
3D轨道图
轨道高度分析图
轨道倾角分析图
轨道综合分析图
查看轨道综合分析图